TimeEDT,TemperatureF,Dew PointF,Humidity,Sea Level PressureIn,VisibilityMPH,Wind Direction,Wind SpeedMPH,Gust SpeedMPH,PrecipitationIn,Events,Conditions,WindDirDegrees,DateUTC
12:53 AM,77.0,64.0,64,30.16,10.0,ENE,9.2,-,N/A,,Clear,60,2013-05-26 04:53:00
1:53 AM,75.9,63.0,64,30.15,10.0,ENE,6.9,-,N/A,,Clear,60,2013-05-26 05:53:00
2:53 AM,75.0,63.0,66,30.13,10.0,NE,5.8,-,N/A,,Clear,50,2013-05-26 06:53:00
3:53 AM,75.0,63.0,66,30.12,10.0,NE,5.8,-,N/A,,Partly Cloudy,50,2013-05-26 07:53:00
4:53 AM,73.9,64.0,71,30.11,10.0,NE,4.6,-,N/A,,Clear,40,2013-05-26 08:53:00
5:53 AM,73.0,64.9,76,30.12,10.0,North,4.6,-,N/A,,Partly Cloudy,350,2013-05-26 09:53:00
6:53 AM,73.0,64.9,76,30.13,10.0,NNW,4.6,-,N/A,,Clear,340,2013-05-26 10:53:00
7:53 AM,75.9,66.0,71,30.13,10.0,Calm,Calm,-,N/A,,Partly Cloudy,0,2013-05-26 11:53:00
8:53 AM,81.0,64.0,56,30.15,10.0,East,13.8,-,N/A,,Partly Cloudy,80,2013-05-26 12:53:00
9:53 AM,82.9,63.0,51,30.16,10.0,East,10.4,-,N/A,,Partly Cloudy,90,2013-05-26 13:53:00
10:53 AM,84.0,63.0,49,30.17,10.0,ESE,13.8,19.6,N/A,,Scattered Clouds,110,2013-05-26 14:53:00
11:53 AM,82.9,64.9,54,30.18,10.0,East,17.3,-,N/A,,Mostly Cloudy,90,2013-05-26 15:53:00
12:53 PM,84.9,64.0,49,30.17,10.0,ENE,13.8,20.7,N/A,,Scattered Clouds,70,2013-05-26 16:53:00
1:53 PM,84.9,66.0,53,30.16,10.0,East,13.8,20.7,N/A,,Partly Cloudy,80,2013-05-26 17:53:00
2:53 PM,82.9,64.9,54,30.15,10.0,ENE,18.4,24.2,N/A,,Scattered Clouds,70,2013-05-26 18:53:00
3:53 PM,84.0,64.9,53,30.14,10.0,East,17.3,23.0,N/A,,Partly Cloudy,90,2013-05-26 19:53:00
4:53 PM,82.0,64.9,56,30.12,10.0,ENE,13.8,-,N/A,,Scattered Clouds,60,2013-05-26 20:53:00
5:53 PM,81.0,66.0,60,30.12,10.0,ENE,16.1,-,N/A,,Partly Cloudy,60,2013-05-26 21:53:00
6:53 PM,80.1,64.9,60,30.12,10.0,ENE,16.1,-,N/A,,Partly Cloudy,60,2013-05-26 22:53:00
7:53 PM,79.0,64.9,62,30.13,10.0,ENE,13.8,-,N/A,,Partly Cloudy,60,2013-05-26 23:53:00
8:53 PM,79.0,64.9,62,30.13,10.0,ENE,12.7,19.6,N/A,,Mostly Cloudy,60,2013-05-27 00:53:00
9:53 PM,73.9,68.0,82,30.14,10.0,NE,11.5,-,0.01,Rain,Light Rain,50,2013-05-27 01:53:00
10:53 PM,75.9,66.9,74,30.16,10.0,East,12.7,-,0.00,,Mostly Cloudy,90,2013-05-27 02:53:00
11:53 PM,75.9,66.0,71,30.16,10.0,East,12.7,-,N/A,,Clear,90,2013-05-27 03:53:00